Date,TemperatureHighF,TemperatureAvgF,TemperatureLowF,DewpointHighF,DewpointAvgF,DewpointLowF,HumidityHigh,HumidityAvg,HumidityLow,PressureMaxIn,PressureMinIn,WindSpeedMaxMPH,WindSpeedAvgMPH,GustSpeedMaxMPH,PrecipitationSumIn
2014-1-1,53,5,47,20,-94,-100,26,1,26,0.00,40.00,6,-104,0,0.00
2014-1-2,51,6,50,17,-86,-100,25,3,22,0.00,40.00,4,-116,0,0.00
2014-1-3,60,9,54,20,-85,-100,25,3,21,0.00,40.00,12,-160,0,0.00
2014-1-4,54,5,49,20,-89,-100,28,2,25,0.00,40.00,9,-90,0,0.00
2014-1-5,42,4,36,-1,-96,-100,23,1,19,0.00,40.00,5,-98,0,0.00
2014-1-6,48,4,44,4,-95,-100,18,1,17,0.00,40.00,8,-77,0,0.00
2014-1-7,50,4,48,6,-91,-100,17,1,16,0.00,40.00,6,-84,0,0.00
2014-1-8,55,12,43,13,-79,-100,22,4,18,0.00,40.00,14,-239,0,0.00
2014-1-9,53,10,42,18,-85,-100,29,4,22,0.00,40.00,14,-197,0,0.00
2014-1-10,59,4,50,25,-96,-100,33,2,32,0.00,40.00,8,-73,0,0.00
2014-1-11,56,3,50,25,-93,-100,35,2,29,0.00,40.00,17,-39,0,0.00
2014-1-12,50,3,45,22,-93,-100,37,2,24,0.00,40.00,15,-52,0,0.00
2014-1-13,55,2,48,11,-97,-100,22,1,22,0.00,40.00,14,-45,0,0.00
2014-1-14,58,2,47,11,-96,-100,21,1,19,0.00,40.00,14,-42,0,0.00
2014-1-15,59,8,45,17,-85,-100,26,3,21,0.00,40.00,8,-150,0,0.00
2014-1-16,62,8,53,7,-98,-100,15,0,13,0.00,40.00,10,-129,0,0.00
2014-1-17,62,11,54,7,-97,-100,12,0,12,0.00,40.00,5,-183,0,0.00
2014-1-18,62,15,51,5,-96,-100,11,0,11,0.00,40.00,4,-271,0,0.00
2014-1-19,58,8,52,10,-91,-100,15,1,14,0.00,40.00,4,-131,0,0.00
2014-1-20,59,6,53,9,-95,-100,15,1,13,0.00,40.00,8,-105,0,0.00
2014-1-21,61,22,49,15,-66,-100,18,5,14,0.00,40.00,4,-343,0,0.00
2014-1-22,57,11,50,12,-79,-100,19,3,15,0.00,40.00,8,-209,0,0.00
2014-1-23,48,7,44,12,-87,-100,24,3,22,0.00,40.00,8,-142,0,0.00
2014-1-24,50,8,46,13,-92,-100,25,2,25,0.00,40.00,4,-157,0,0.00
2014-1-29,-200,0,200,-100,-100,-100,0,0,100,0.00,40.00,19,11,0,0.00
2014-1-30,54,0,54,28,-99,-100,35,0,35,0.00,40.00,35,10,0,0.00
2014-1-31,44,2,39,30,-95,-100,64,7,31,0.00,40.00,21,-30,0,0.00
2014-2-1,37,2,33,-100,-100,-100,0,0,100,0.00,40.00,13,-48,0,0.00
2014-2-2,40,6,29,10,-80,-100,43,6,29,0.00,40.00,7,-187,0,0.00
2014-2-3,38,1,35,12,-96,-100,36,1,33,0.00,40.00,16,-25,0,0.00
2014-2-4,39,2,37,18,-98,-100,45,3,32,0.00,40.00,15,-46,0,0.00
2014-2-5,45,4,35,15,-92,-100,34,2,30,0.00,40.00,9,-87,0,0.00
2014-2-6,41,2,35,33,-92,-100,90,4,54,0.00,40.00,10,-60,0,0.00
2014-2-7,40,1,37,36,-98,-100,95,6,94,0.00,40.00,9,-30,0,0.00
2014-2-8,41,4,38,31,-91,-100,66,4,66,0.00,40.00,15,-104,0,0.00
2014-2-9,51,4,49,32,-96,-100,51,5,48,0.00,40.00,5,-81,0,0.00
2014-2-10,61,5,46,34,-93,-100,55,11,28,0.00,40.00,15,-88,0,0.00
2014-2-11,59,12,45,27,-74,-100,39,7,29,0.00,40.00,5,-225,0,0.00
2014-2-12,59,10,53,24,-91,-100,26,2,24,0.00,40.00,10,-178,0,0.00
2014-2-13,70,10,60,28,-82,-100,22,3,20,0.00,40.00,5,-154,0,0.00
2014-2-14,66,2,62,22,-98,-100,21,1,20,0.00,40.00,7,-24,0,0.00
2014-2-15,64,6,56,25,-93,-100,24,2,18,0.00,40.00,14,-95,0,0.00
2014-2-16,71,4,62,28,-96,-100,23,1,19,0.00,40.00,31,-58,0,0.00
2014-2-17,62,6,53,8,-99,-100,12,1,11,0.00,40.00,19,-105,0,0.00
2014-2-18,66,9,55,20,-91,-100,21,2,17,0.00,40.00,11,-148,0,0.00
2014-2-19,65,2,57,17,-98,-100,16,1,13,0.00,40.00,19,-7,0,0.00
2014-2-20,48,8,35,7,-95,-100,27,2,20,0.00,40.00,11,-132,0,0.00
2014-2-21,53,5,52,9,-97,-100,17,0,17,0.00,40.00,8,-100,0,0.00
2014-2-22,60,7,49,15,-91,-100,20,2,18,0.00,40.00,5,-132,0,0.00
2014-2-23,59,10,52,19,-83,-100,24,3,20,0.00,40.00,10,-171,0,0.00
2014-2-24,62,8,52,20,-89,-100,21,3,19,0.00,40.00,8,-133,0,0.00
2014-2-25,67,15,55,22,-78,-100,22,4,17,0.00,40.00,8,-250,0,0.00
2014-2-26,58,2,58,24,-96,-100,27,1,26,0.00,40.00,21,-25,0,0.00
2014-2-27,-200,0,200,-100,-100,-100,60,2,24,0.00,40.00,31,16,0,0.00
2014-2-28,45,0,45,31,-98,-100,99,6,26,0.00,40.00,32,0,0,0.00
2014-3-1,45,1,45,34,-96,-100,75,8,56,0.00,40.00,20,-17,0,0.01
2014-3-2,51,4,46,38,-90,-100,67,6,60,0.00,40.00,15,-65,0,0.00
2014-3-3,55,16,41,36,-54,-100,72,21,49,0.00,40.00,5,-293,0,0.00
2014-3-4,60,7,46,39,-86,-100,55,5,32,0.00,40.00,11,-140,0,0.00
2014-3-5,64,12,49,31,-82,-100,47,7,32,0.00,40.00,8,-178,0,0.00
2014-3-6,64,3,53,34,-94,-100,36,3,32,0.00,40.00,22,-39,0,0.00
2014-3-7,54,1,48,20,-98,-100,42,1,22,0.00,40.00,24,-9,0,0.00
2014-3-8,53,1,52,20,-99,-100,26,0,26,0.00,40.00,12,-13,0,0.00
2014-3-9,63,6,55,22,-97,-100,20,0,17,0.00,40.00,6,-105,0,0.00
2014-3-10,67,1,59,24,-99,-100,25,0,25,0.00,40.00,23,-7,0,0.00
2014-3-11,50,1,50,-100,-100,-100,26,1,16,0.00,40.00,19,-10,0,0.00
2014-3-12,50,2,43,17,-97,-100,29,1,21,0.00,40.00,12,-13,0,0.00
2014-3-13,60,10,51,16,-94,-100,22,1,19,0.00,40.00,10,-173,0,0.00
2014-3-14,55,17,49,14,-73,-100,24,5,20,0.00,40.00,7,-331,0,0.00
2014-3-17,-200,0,200,-100,-100,-100,0,0,100,0.00,40.00,27,15,0,0.00
2014-3-18,51,4,44,0,-97,-100,15,0,15,0.00,40.00,18,-73,0,0.00
2014-3-19,54,11,38,5,-91,-100,19,1,13,0.00,40.00,7,-238,0,0.00
2014-3-20,63,15,46,5,-92,-100,14,1,11,0.00,40.00,9,-285,0,0.00
2014-3-21,65,8,59,16,-91,-100,16,1,13,0.00,40.00,14,-116,0,0.00
2014-3-22,64,11,52,26,-91,-100,29,2,21,0.00,40.00,21,-172,0,0.00
2014-3-23,64,4,51,17,-93,-100,25,3,20,0.00,40.00,6,-77,0,0.00
2014-3-24,64,10,60,11,-92,-100,14,1,14,0.00,40.00,11,-162,0,0.00
2014-3-25,71,4,57,12,-96,-100,14,1,12,0.00,40.00,25,-59,0,0.00
2014-3-26,52,0,52,-100,-100,-100,48,3,30,0.00,40.00,36,11,0,0.00
2014-3-27,52,2,43,32,-93,-100,58,3,46,0.00,40.00,15,-45,0,0.00
2014-3-28,63,6,57,27,-89,-100,30,2,23,0.00,40.00,13,-95,0,0.00
2014-3-29,65,2,52,25,-99,-100,25,1,22,0.00,40.00,27,-24,0,0.00
2014-3-30,50,1,50,10,-98,-100,32,1,19,0.00,40.00,28,-6,0,0.00
2014-3-31,53,1,48,19,-98,-100,31,3,16,0.00,40.00,28,-11,0,0.00
2014-4-1,-200,0,200,-100,-100,-100,39,2,21,0.00,40.00,32,15,0,0.00
2014-4-2,41,1,41,21,-96,-100,59,5,43,0.00,40.00,28,-18,0,0.00
2014-4-3,56,2,46,25,-98,-100,33,2,30,0.00,40.00,12,-36,0,0.00
2014-4-4,54,2,51,20,-96,-100,26,1,25,0.00,40.00,13,-27,0,0.00
2014-4-5,60,1,57,21,-97,-100,32,1,19,0.00,40.00,19,-14,0,0.00
2014-4-6,-200,0,200,-100,-100,-100,25,0,23,0.00,40.00,21,13,0,0.00
2014-4-7,71,6,61,21,-95,-100,26,2,17,0.00,40.00,19,-92,0,0.00
2014-4-8,74,10,58,25,-91,-100,21,1,17,0.00,40.00,12,-149,0,0.00
2014-4-9,73,1,73,-100,-100,-100,0,0,100,0.00,40.00,17,-6,0,0.00
2014-4-10,78,3,70,14,-98,-100,9,0,8,0.00,40.00,48,-33,0,0.00
2014-4-11,81,4,65,27,-97,-100,18,1,11,0.00,40.00,24,-34,0,0.00
2014-4-12,66,1,66,-100,-100,-100,0,0,100,0.00,40.00,40,-5,0,0.00
2014-4-13,67,5,59,31,-94,-100,30,1,12,0.00,40.00,22,-68,0,0.00
2014-4-14,65,8,47,9,-99,-100,19,0,15,0.00,40.00,21,-130,0,0.00
2014-4-15,68,6,58,15,-95,-100,14,1,12,0.00,40.00,19,-86,0,0.00
2014-4-16,77,11,62,23,-94,-100,17,1,14,0.00,40.00,15,-114,0,0.00
2014-4-17,-200,0,200,-100,-100,-100,21,1,21,0.00,40.00,21,10,0,0.00
2014-4-18,73,4,62,28,-98,-100,27,0,27,0.00,40.00,13,-51,0,0.00
2014-4-19,75,12,57,37,-83,-100,43,4,22,0.00,40.00,13,-175,0,0.00
2014-4-20,80,3,63,35,-97,-100,21,0,20,0.00,40.00,17,-28,0,0.00
2014-4-21,77,6,70,33,-92,-100,24,1,21,0.00,40.00,20,-76,0,0.00
2014-4-22,68,2,62,18,-98,-100,15,0,9,0.00,40.00,33,-15,0,0.00
2014-4-23,64,6,53,15,-93,-100,17,1,16,0.00,40.00,15,-96,0,0.00
2014-4-24,71,10,55,15,-94,-100,14,1,11,0.00,40.00,28,-156,0,0.00
2014-4-25,61,2,57,29,-97,-100,45,2,26,0.00,40.00,28,-7,0,0.00
2014-4-26,51,2,45,35,-95,-100,59,3,34,0.00,40.00,37,-12,0,0.00
2014-4-27,58,7,45,25,-83,-100,37,5,21,0.00,40.00,17,-120,0,0.00
2014-4-28,63,5,51,21,-94,-100,27,1,18,0.00,40.00,18,-73,0,0.00
2014-4-29,62,4,49,15,-95,-100,21,1,11,0.00,40.00,17,-59,0,0.00
2014-4-30,61,2,57,1,-98,-100,18,1,7,0.00,40.00,21,-28,0,0.00
2014-5-1,74,5,54,13,-99,-100,15,0,15,0.00,40.00,26,-46,0,0.00
2014-5-2,84,11,64,16,-91,-100,11,1,10,0.00,40.00,14,-149,0,0.00
2014-5-3,80,2,77,16,-97,-100,9,0,6,0.00,40.00,50,-14,0,0.00
2014-5-4,75,3,65,21,-98,-100,18,0,18,0.00,40.00,52,-24,0,0.00
2014-5-5,71,1,71,-100,-100,-100,37,0,16,0.00,40.00,30,8,0,0.00
2014-5-6,51,0,51,28,-99,-100,44,2,40,0.00,40.00,26,16,0,0.00
2014-5-13,70,13,61,13,-89,-100,15,2,15,0.00,40.00,7,-196,0,0.00
2014-5-14,77,14,55,21,-85,-100,15,2,11,0.00,40.00,7,-199,0,0.00
2014-5-15,88,9,64,22,-97,-100,14,0,13,0.00,40.00,18,-111,0,0.00
2014-5-16,87,10,78,24,-95,-100,13,0,11,0.00,40.00,50,-106,0,0.00
2014-5-17,86,11,74,26,-97,-100,13,0,13,0.00,40.00,31,-119,0,0.00
2014-5-18,81,2,66,-100,-100,-100,16,1,12,0.00,40.00,30,3,0,0.00
2014-5-19,74,4,62,29,-93,-100,27,2,18,0.00,40.00,35,-37,0,0.00
2014-5-20,61,2,58,24,-98,-100,24,1,16,0.00,40.00,28,-9,0,0.00
2014-5-21,68,8,53,26,-88,-100,28,3,21,0.00,40.00,18,-133,0,0.00
2014-5-22,-200,0,200,-100,-100,-100,0,0,100,0.00,40.00,6,6,0,0.00
2014-5-23,65,27,65,27,-47,-100,23,10,23,0.00,40.00,5,-416,0,0.00
2014-5-24,76,6,64,35,-94,-100,33,2,25,0.00,40.00,9,-76,0,0.00
2014-5-25,85,13,61,42,-82,-100,44,4,19,0.00,40.00,17,-164,0,0.00
2014-5-26,90,12,71,38,-94,-100,20,1,17,0.00,40.00,18,-124,0,0.00
2014-5-27,87,5,79,39,-98,-100,19,1,18,0.00,40.00,21,-49,0,0.00
2014-5-28,79,1,79,25,-98,-100,15,0,13,0.00,40.00,20,-4,0,0.00
2014-5-29,81,5,73,28,-94,-100,16,1,14,0.00,40.00,24,-56,0,0.00
2014-5-30,86,8,77,28,-91,-100,16,1,7,0.00,40.00,20,-66,0,0.00
2014-5-31,83,5,68,19,-94,-100,14,1,9,0.00,40.00,26,-58,0,0.00
2014-6-1,85,17,65,19,-90,-100,13,1,7,0.00,40.00,57,-216,0,0.00
2014-6-2,86,5,73,16,-98,-100,10,0,10,0.00,40.00,22,-50,0,0.00
2014-6-3,76,3,67,18,-99,-100,15,0,15,0.00,40.00,22,-23,0,0.00
2014-6-4,88,9,73,22,-94,-100,9,0,9,0.00,40.00,21,-105,0,0.00
2014-6-5,89,15,71,22,-92,-100,10,1,7,0.00,40.00,51,-183,0,0.00
2014-6-6,86,3,71,-100,-100,-100,0,0,100,0.00,40.00,22,-33,0,0.00
2014-6-7,92,13,71,28,-98,-100,13,0,13,0.00,40.00,19,-150,0,0.00
2014-6-8,94,14,77,19,-96,-100,14,1,9,0.00,40.00,56,-152,0,0.00
2014-6-9,85,4,75,-100,-100,-100,0,0,100,0.00,40.00,15,-43,0,0.00
2014-6-10,86,8,79,35,-96,-100,16,1,10,0.00,40.00,20,-86,0,0.00
2014-6-11,84,6,73,37,-93,-100,22,3,15,0.00,40.00,19,-64,0,0.00
2014-6-12,84,6,75,33,-99,-100,18,0,18,0.00,40.00,47,-58,0,0.00
2014-6-13,77,4,74,28,-96,-100,16,1,11,0.00,40.00,32,-24,0,0.00
2014-6-14,85,9,68,18,-95,-100,14,0,8,0.00,40.00,37,-82,0,0.00
2014-6-15,83,8,71,31,-96,-100,21,1,11,0.00,40.00,29,-80,0,0.00
2014-6-16,71,2,66,30,-97,-100,30,1,19,0.00,40.00,33,-8,0,0.00
2014-6-17,73,3,66,32,-96,-100,30,1,18,0.00,40.00,32,-16,0,0.00
2014-6-18,79,6,64,25,-96,-100,20,1,13,0.00,40.00,13,-77,0,0.00
2014-6-19,84,19,67,22,-90,-100,13,1,10,0.00,40.00,7,-250,0,0.00
2014-6-20,89,8,80,26,-94,-100,13,1,11,0.00,40.00,31,-85,0,0.00
2014-6-21,90,9,80,26,-99,-100,13,0,12,0.00,40.00,35,-91,0,0.00
2014-6-22,89,10,75,25,-94,-100,16,1,11,0.00,40.00,25,-95,0,0.00
2014-6-23,89,14,75,29,-94,-100,14,1,11,0.00,40.00,22,-169,0,0.00
2014-6-24,89,5,79,35,-98,-100,15,0,15,0.00,40.00,83,-46,0,0.00
2014-6-25,91,8,76,34,-96,-100,16,0,13,0.00,40.00,22,-67,0,0.00
2014-6-26,80,1,80,-100,-100,-100,0,0,100,0.00,40.00,25,16,0,0.00
2014-6-27,81,7,74,38,-92,-100,23,1,21,0.00,40.00,19,-87,0,0.00
2014-6-28,94,17,77,38,-95,-100,19,1,19,0.00,40.00,19,-163,0,0.00
2014-6-29,98,9,79,42,-96,-100,23,1,19,0.00,40.00,19,-95,0,0.00
2014-6-30,95,16,81,50,-87,-100,26,2,20,0.00,40.00,21,-168,0,0.00
2014-7-1,96,12,81,43,-97,-100,24,1,17,0.00,40.00,21,-95,0,0.00
2014-7-2,94,11,84,44,-86,-100,24,2,18,0.00,40.00,22,-118,0,0.00
2014-7-3,94,12,78,44,-89,-100,22,2,15,0.00,40.00,18,-128,0,0.00
2014-7-4,92,9,75,52,-88,-100,39,5,28,0.00,40.00,24,-82,0,0.00
2014-7-5,85,18,80,56,-66,-100,40,9,29,0.00,40.00,24,-162,0,0.00
2014-7-6,89,11,71,55,-89,-100,57,5,31,0.00,40.00,19,-133,0,0.00
2014-7-7,92,33,71,57,-49,-100,53,12,29,0.00,40.00,20,-349,0,0.00
2014-7-8,90,16,71,55,-83,-100,56,8,27,0.00,40.00,28,-174,0,0.01
2014-7-9,83,9,70,54,-87,-100,55,6,40,0.00,40.00,10,-110,0,0.00
2014-7-10,79,10,73,54,6,51,56,11,32,0.00,40.00,10,5,0,0.00
2014-7-11,86,7,74,57,4,56,54,3,39,0.00,40.00,16,7,0,0.00
2014-7-12,95,17,77,41,3,35,21,2,20,0.00,40.00,16,4,0,0.00
2014-7-13,99,14,88,46,2,40,21,1,18,0.00,40.00,22,5,0,0.00
2014-7-14,90,12,79,55,5,49,35,3,30,0.00,40.00,25,8,0,0.00
2014-7-15,85,14,72,56,4,56,57,4,23,0.00,40.00,17,9,0,0.00
2014-7-16,86,4,81,43,2,39,25,1,18,0.00,40.00,20,8,0,0.00
2014-7-17,92,5,86,44,1,43,20,0,20,0.00,40.00,21,10,0,0.00
2014-7-18,89,5,83,-100,0,200,16,0,16,0.00,40.00,20,9,0,0.00
2014-7-19,-200,0,200,-100,0,200,0,0,100,0.00,40.00,13,10,0,0.00
2014-7-20,-200,0,200,-100,0,200,0,0,100,0.00,40.00,17,13,0,0.00
2014-7-21,86,2,86,-100,0,200,34,2,23,0.00,40.00,15,10,0,0.00
2014-7-22,-200,0,200,-100,0,200,0,0,100,0.00,40.00,20,11,0,0.00
2014-7-23,97,4,97,-100,0,200,0,0,100,0.00,40.00,18,11,0,0.00
2014-7-24,-200,0,200,-100,0,200,0,0,100,0.00,40.00,18,12,0,0.00
2014-7-25,-200,0,200,-100,0,200,28,1,22,0.00,40.00,19,11,0,0.00
2014-7-26,82,2,82,-100,0,200,34,1,34,0.00,40.00,15,8,0,0.00
2014-7-27,88,3,79,53,1,53,30,1,30,0.00,40.00,26,10,0,0.00
2014-7-28,83,7,74,58,5,50,56,4,38,0.00,40.00,9,4,0,0.00
2014-7-29,78,3,78,-100,0,200,0,0,100,0.00,40.00,13,7,0,0.00
2014-7-30,93,1,93,-100,0,200,0,0,100,0.00,40.00,19,6,0,0.00
2014-7-31,-200,0,200,-100,0,200,0,0,100,0.00,40.00,12,7,0,0.00
2014-8-1,92,6,90,53,2,53,26,1,26,0.00,40.00,11,6,0,0.00
2014-8-2,71,1,71,-100,0,200,0,0,100,0.00,40.00,19,10,0,0.00
2014-8-3,74,9,70,57,7,56,61,9,52,0.00,40.00,15,6,0,0.00
2014-8-4,66,8,66,65,7,61,96,12,82,0.00,40.00,9,4,0,0.00
2014-8-5,81,5,76,58,2,58,82,7,54,0.00,40.00,18,8,0,0.00
2014-8-6,87,13,74,47,3,39,31,2,18,0.00,40.00,12,6,0,0.00
2014-8-7,89,12,80,33,3,33,18,2,18,0.00,40.00,46,6,0,0.00
2014-8-8,87,2,87,-100,0,200,20,0,20,0.00,40.00,14,8,0,0.00
2014-8-9,82,2,81,44,0,44,27,0,27,0.00,40.00,60,12,0,0.00
2014-8-10,82,7,80,49,3,48,34,4,30,0.00,40.00,58,6,0,0.00
2014-8-11,-200,0,200,-100,0,200,36,3,36,0.00,40.00,25,5,0,0.00
2014-8-12,-200,0,200,-100,0,200,0,0,100,0.00,40.00,26,5,0,0.00
2014-8-13,-200,0,200,-100,0,200,61,2,61,0.00,40.00,15,8,0,0.00
2014-8-14,-200,0,200,-100,0,200,56,1,56,0.00,40.00,20,12,0,0.00
2014-8-15,-200,0,200,-100,0,200,14,0,14,0.00,40.00,19,12,0,0.00
2014-8-16,80,1,80,-100,0,200,21,1,19,0.00,40.00,18,10,0,0.00
2014-8-17,93,2,93,-100,0,200,0,0,100,0.00,40.00,15,9,0,0.00
2014-8-18,86,2,83,42,1,38,33,1,20,0.00,40.00,17,9,0,0.00
2014-8-19,-200,0,200,-100,0,200,84,2,84,0.00,40.00,13,7,0,0.00
2014-8-20,65,2,65,52,2,52,62,2,62,0.00,40.00,12,8,0,0.00
2014-8-21,74,1,74,47,1,47,56,3,38,0.00,40.00,24,8,0,0.00
2014-8-22,-200,0,200,-100,0,200,40,2,35,0.00,40.00,25,9,0,0.00
2014-8-23,79,1,79,49,1,49,39,1,35,0.00,40.00,20,9,0,0.00
2014-8-24,79,2,76,37,1,35,22,1,18,0.00,40.00,19,9,0,0.00
2014-8-25,-200,0,200,-100,0,200,22,1,17,0.00,40.00,22,12,0,0.00
2014-8-26,71,0,200,-100,0,200,21,1,20,0.00,40.00,16,9,0,0.00
2014-8-27,85,10,68,46,2,35,32,1,26,0.00,40.00,14,4,0,0.00
2014-8-28,80,6,74,34,1,34,23,1,23,0.00,40.00,15,8,0,0.00
2014-8-29,85,9,75,39,4,33,21,2,18,0.00,40.00,15,8,0,0.00
2014-8-30,89,3,89,-100,0,200,16,0,16,0.00,40.00,14,9,0,0.00
2014-8-31,81,4,78,34,1,34,20,0,20,0.00,40.00,18,8,0,0.00
2014-9-1,89,7,76,38,2,34,21,1,18,0.00,40.00,16,7,0,0.00
2014-9-2,85,5,81,-100,0,200,0,0,100,0.00,40.00,16,8,0,0.00
2014-9-3,-200,0,200,-100,0,200,13,0,13,0.00,40.00,21,11,0,0.00
2014-9-4,81,2,81,-100,0,200,0,0,100,0.00,40.00,15,10,0,0.00
2014-9-5,81,4,77,-100,0,200,25,1,20,0.00,40.00,13,7,0,0.00
2014-9-6,88,3,77,48,2,46,39,3,25,0.00,40.00,12,7,0,0.00
2014-9-7,-200,0,200,-100,0,200,71,2,33,0.00,40.00,28,10,0,0.00
2014-9-8,69,2,65,60,2,57,76,2,72,0.00,40.00,16,6,0,0.00
2014-9-9,77,1,77,49,1,49,37,1,37,0.00,40.00,17,7,0,0.00
2014-9-10,83,6,70,40,1,40,43,2,26,0.00,40.00,13,5,0,0.00
2014-9-11,89,13,72,42,2,36,25,1,17,0.00,40.00,16,7,0,0.00
2014-9-12,89,9,73,38,1,38,20,1,20,0.00,40.00,11,4,0,0.00
2014-9-13,90,9,76,36,0,36,19,0,19,0.00,40.00,9,4,0,0.00
2014-9-14,86,5,80,45,2,45,29,2,28,0.00,40.00,16,6,0,0.00
2014-9-15,92,8,75,48,3,44,30,2,28,0.00,40.00,17,7,0,0.00
2014-9-16,82,2,82,-100,0,200,48,2,28,0.00,40.00,22,7,0,0.00
2014-9-17,74,2,74,-100,0,200,48,1,48,0.00,40.00,18,7,0,0.00
2014-9-18,-200,0,200,-100,0,200,50,1,19,0.00,40.00,23,12,0,0.00
2014-9-19,84,13,68,46,6,37,35,5,26,0.00,40.00,48,7,0,0.00
2014-9-20,82,10,72,43,3,38,28,2,25,0.00,40.00,61,6,0,0.00
2014-9-21,78,4,71,54,1,54,54,2,33,0.00,40.00,13,6,0,0.00
2014-9-22,83,11,74,47,4,41,38,3,28,0.00,40.00,29,5,0,0.00
2014-9-23,84,23,71,41,5,34,26,3,22,0.00,40.00,6,2,0,0.00
2014-9-24,83,5,71,34,0,34,25,0,25,0.00,40.00,9,5,0,0.00
2014-9-25,-200,0,200,-100,0,200,33,1,30,0.00,40.00,21,12,0,0.00
2014-9-26,77,1,74,53,1,52,50,4,34,0.00,40.00,29,13,0,0.00
2014-9-27,57,1,57,-100,0,200,37,1,29,0.00,40.00,28,13,0,0.00
2014-9-28,64,2,57,32,0,32,38,1,34,0.00,40.00,18,6,0,0.00
2014-9-29,59,1,59,36,0,36,41,2,36,0.00,40.00,19,7,0,0.00
2014-9-30,77,3,60,39,2,32,35,2,25,0.00,40.00,10,5,0,0.00
2014-10-1,66,1,66,35,1,35,33,2,31,0.00,40.00,10,6,0,0.00
2014-10-2,55,3,55,-100,0,200,0,0,100,0.00,40.00,7,4,0,0.00
2014-10-4,80,6,65,26,0,26,20,0,20,0.00,40.00,5,3,0,0.00
2014-10-5,74,11,67,35,2,27,24,2,19,0.00,40.00,5,3,0,0.00
2014-10-6,77,17,67,35,4,31,23,3,21,0.00,40.00,6,3,0,0.00
2014-10-7,74,5,71,32,1,32,24,1,23,0.00,40.00,15,5,0,0.00
2014-10-8,74,11,62,43,1,42,37,1,31,0.00,40.00,6,3,0,0.00
2014-10-9,62,3,62,43,2,43,50,5,43,0.00,40.00,8,4,0,0.00
2014-10-12,68,2,68,-100,0,200,0,0,100,0.00,40.00,12,7,0,0.00
2014-10-13,70,5,61,21,0,21,20,0,20,0.00,40.00,7,4,0,0.00
2014-10-14,73,6,58,-100,0,200,0,0,100,0.00,40.00,13,4,0,0.00
2014-10-15,-200,0,200,-100,0,200,27,0,27,0.00,40.00,15,9,0,0.00
2014-10-16,68,4,64,33,2,33,31,2,27,0.00,40.00,20,6,0,0.00
2014-10-17,71,6,58,37,3,33,38,5,28,0.00,40.00,13,4,0,0.00
2014-10-18,74,13,61,39,4,35,38,7,31,0.00,40.00,3,2,0,0.00
2014-10-19,73,6,65,38,3,35,31,2,28,0.00,40.00,10,4,0,0.00
2014-10-20,74,5,62,-100,0,200,0,0,100,0.00,40.00,16,6,0,0.00
2014-10-21,63,2,59,34,0,34,33,1,20,0.00,40.00,15,9,0,0.00
2014-10-22,71,5,61,29,0,29,22,0,22,0.00,40.00,11,4,0,0.00
2014-10-23,74,3,68,30,1,30,24,1,24,0.00,40.00,11,4,0,0.00
2014-10-24,71,4,68,38,2,36,30,2,30,0.00,40.00,14,4,0,0.00
2014-10-25,-200,0,200,-100,0,200,36,1,32,0.00,40.00,35,13,0,0.00
2014-10-26,60,1,60,27,0,27,28,1,22,0.00,40.00,35,13,0,0.00
2014-10-27,59,13,55,22,3,19,24,3,23,0.00,40.00,8,3,0,0.00
2014-10-28,70,20,52,25,2,22,21,2,18,0.00,40.00,7,2,0,0.00
2014-10-29,74,9,61,24,2,18,18,1,15,0.00,40.00,5,2,0,0.00
2014-10-30,73,6,63,26,1,20,19,1,17,0.00,40.00,8,4,0,0.00
2014-10-31,-200,0,200,-100,0,200,0,0,100,0.00,40.00,20,10,0,0.00
2014-11-1,-200,0,200,-100,0,200,52,1,50,0.00,40.00,30,16,0,0.00
2014-11-2,53,4,46,31,2,28,48,3,40,0.00,40.00,15,7,0,0.00
2014-11-3,48,3,42,10,0,10,22,1,21,0.00,40.00,16,8,0,0.00
2014-11-4,58,10,43,17,2,9,24,3,18,0.00,40.00,8,3,0,0.00
2014-11-5,67,7,56,24,1,19,24,1,19,0.00,40.00,8,4,0,0.00
2014-11-6,62,15,56,28,4,26,30,4,30,0.00,40.00,4,2,0,0.00
2014-11-7,68,15,61,31,4,29,26,4,25,0.00,40.00,8,3,0,0.00
2014-11-8,72,20,58,30,4,25,26,3,22,0.00,40.00,6,2,0,0.00
2014-11-9,71,15,60,30,3,27,25,4,22,0.00,40.00,12,4,0,0.00
2014-11-10,74,10,59,30,3,24,23,3,19,0.00,40.00,13,5,0,0.00
2014-11-11,64,7,59,28,1,24,30,1,25,0.00,40.00,14,4,0,0.00
2014-11-12,61,12,52,32,6,30,46,8,37,0.00,40.00,7,3,0,0.00
2014-11-13,61,9,50,37,5,32,54,8,40,0.00,40.00,14,4,0,0.00
2014-11-14,61,3,51,41,2,31,66,4,44,0.00,40.00,17,6,0,0.00
2014-11-15,59,7,51,34,4,30,46,4,38,0.00,40.00,23,7,0,0.00
2014-11-16,45,2,36,7,0,-4,29,1,15,0.00,40.00,28,10,0,0.00
2014-11-17,48,9,33,2,0,-4,18,1,16,0.00,40.00,7,2,0,0.00
2014-11-18,56,16,40,14,1,8,23,3,20,0.00,40.00,4,2,0,0.00
2014-11-19,55,18,46,15,4,4,24,7,17,0.00,40.00,7,2,0,0.00
2014-11-20,55,10,45,15,2,11,39,5,20,0.00,40.00,4,1,0,0.00
2014-11-21,57,7,45,23,1,16,37,2,25,0.00,40.00,10,4,0,0.00
2014-11-22,54,1,50,23,0,22,34,1,26,0.00,40.00,19,9,0,0.00
2014-11-23,49,4,43,9,0,5,83,3,18,0.00,40.00,24,9,0,0.00